Погода Колпашево

Погода Колпашево : погода сейчас, прогноз погоды и архив. Всё, что Вы хотите узнать о погоде Колпашево!

Хотите узнать прогноз погоды Колпашево? Тогда Вам сюда: Погода Колпашево

Поиск расширенной информации на нашем сайте:

Другие новости

Новости СМИ2

Главная страница сайта

Новости сайта

03.07.2017

Напоминаем, что на нашем специализированном сайте Метеоцентр.Азия вы можете получить высокодетализированные автоматические прогнозы погоды по пунктам России, СНГ и мира в авиационном формате (включающие направление и скорость ветра, видимость, явления погоды, количество и форму облачности, нижнюю и верхнюю границу облачности).

Рекомендуем: Видео и фото на свадьбу bachinskiy.kiev.ua.

Погода Колпашево - сегодня

Время (UTC), дата Ветер
(°,м/с) 
Видим.   Явления Облачность Т
(°С)
Тd
(°С)
f(%) Тe
(°С)
Pmin
(гПа)
dP
(гПа)
Po
(мм)
O2
(г/м3)
Тmin Tmax R s Состояние
почвы
18 15.10.17 тихо ()   20000 м    9/0 средняя 
[Ac trans]
-0.1 -3.7 77 -0  1011.1  -1.6  751  303           
21 15.10.17 360 (С) 20000 м    8/3 600 м кучево-дожд., средняя 
[Cb cap|Ac trans]
+0.4 -3.8 73 +1  1009.8  -1.3  750  302           
00 16.10.17 тихо ()   20000 м    10/5 600 м кучево-дожд., средняя 
[Cb cap|Ac trans]
+0.5 -3.6 74 +1  1010.1  0.4  750  302  -1.6         
03 16.10.17 340 (С) 20000 м    9/9 600 м 
[Sc]
+1 -3.2 73 1011  0.8  751  302           
06 16.10.17 350 (С) 20000 м    9/9 600 м 
[Sc]
+3.2 -3.2 63 +3  1012.4  1.5  752  300           
09 16.10.17 320 (СЗ) 20000 м    8/3 1000 м средняя, верхняя 
[Sc|Ac trans|Cc]
+6.6 -1.5 56 +6  1014.5  2.2  754  297           
12 16.10.17 310 (СЗ) 20000 м    9/9 600 м 
[Sc]
+3.7 -0.4 75 +3  1018.1  3.5  756  301    +6.7       
15 16.10.17 310 (СЗ) 20000 м    ясно 
-1.1 -2.6 90 -1  1021.1  2.7  758  307           
18 16.10.17 340 (С) 20000 м    ясно 
-1.7 -3.2 89 -3  1023.3  2.3  760  309           
21 16.10.17 310 (СЗ) 20000 м    10/8 300 м кучево-дожд., средняя 
[Cb cap|Ac trans]
-1.1 -2.7 89 -1  1025.1  1.8  762  308           
00 17.10.17 340 (С) 20000 м    10/10 420 м кучево-дожд. 
[Cb cap]
-1.5 -4 83 -1  1026.8  1.6  763  310  -1.9        замёрзшая 
03 17.10.17 010 (С) 20000 м    10/10 400 м кучево-дожд. 
[Cb cap]
-1.5 -4.3 81 -1  1028.5  1.7  764  310           
06 17.10.17 320 (СЗ) 20000 м    10/10 420 м кучево-дожд. 
[Cb cap]
-1.3 -4.5 79 -1  1029.1  0.6  764  310           
09 17.10.17 140 (ЮВ) 20000 м    10/10 450 м кучево-дожд. 
[Cb cap]
-1.1 -4.5 78 -1  1028.4  -0.6  764  310           
12 17.10.17 тихо ()   20000 м    10/10 420 м кучево-дожд. 
[Cb cap]
-1.5 -4.3 81 -2  1028.3  -0.2  764  310    -0.8       
15 17.10.17 100 (В) 20000 м    10/10 360 м кучево-дожд. 
[Cb cap]
-2.2 -4.4 85 -3  1027.7  -0.6  763  311           
18 17.10.17 110 (В) 20000 м    10/10 210 м кучево-дожд. 
[Cb cap]
-3.1 -4.3 91 -4  1026.3  -1.4  762  311           
21 17.10.17 140 (ЮВ) 4000 м  слаб. ливневой снег  10/10 210 м кучево-дожд. 
[Cb cap]
-3.6 -4.7 92 -5  1025  -1.3  761  311           
00 18.10.17 100 (В) 4000 м  слаб. ливневой снег  10/10 210 м кучево-дожд. 
[Cb cap]
-3.6 -4.7 92 -5  1024  -1  761  311  -3.9    0.0     
03 18.10.17 120 (ЮВ) 20000 м  {ливн. осадки}  10/8 1000 м средняя 
[Sc|Ac As]
-3.3 -5.1 87 -4  1022.8  -1.2  760  310           
06 18.10.17 100 (В) 20000 м  {ливн. осадки}  8/8 600 м кучево-дожд. 
[Cb cap]
-0.6 -5.1 72 -1  1021.1  -1.5  759  307           
09 18.10.17 110 (В) 20000 м    3/0 верхняя 
[Ci sp]
+2.2 -4.9 59 +2  1019.1  -2  757  303           
12 18.10.17 110 (В) 20000 м    ясно 
-1.3 -4.6 78 -2  1018.8  -0.4  757  307    +2.3  0.0     
15 18.10.17 120 (ЮВ) 20000 м    9/9 300 м кучево-дожд. 
[Cb cap]
-1.1 -3.3 85 -3  1017.5  -1.3  756  306           
18 18.10.17 140 (ЮВ) 20000 м    10/10 420 м кучево-дожд. 
[Cb cap]
+0.1 -1.4 90 -2  1016.6  -0.8  755  304           
Время (UTC), дата Ветер
(°,м/с) 
Видим.   Явления Облачность Т
(°С)
Тd
(°С)
f(%) Тe
(°С)
Pmin
(гПа)
dP
(гПа)
Po
(мм)
O2
(г/м3)
Тmin Tmax R s Состояние
почвы

Для получения пояснительной информации подведите курсор к названию столбца.

ПОГОДА Колпашево - архив

Всё, что Вы хотите узнать о погоде Колпашево - удобно и подробно!

Выберите нужную дату (начиная с 1 января 2015* года) и нажмите кнопку "Найти".
Будут отображены архивные сводки погоды по пункту Колпашево, начиная с указанной даты.


Отображать данные в формате CSV (для использования в таблицах Excel)


Внимание! Наш архив погоды предназначен исключительно для личного некоммерческого использования в познавательных целях. Если Вам необходимы официальные справки о состоянии погоды (для производственных, юридических, коммерческих и т.п. целей), обращайтесь в органы Росгидромета.

*Примечание: данная дата относится к архиву по метеостанциям СССР (Россия, СНГ, Балтия).
Архив по метеостанциям Зарубежной Европы и Азии (кроме Китая) хранится 10 дней, по другим регионам земного шара (Китай, Африка, Америка, Австралия, Океания) - 1 день.

Колпашево - район местоположения метеостанции


Название, широта, долгота, высота метеостанции:
Колпашево 58.3°ш. 82.9°д. 75 м над ур. моря [Российская Федерация]

Дополнительная информация

В oтличие oт бoльшинства пoгoдных сайтoв мы публикуем пoдрoбную метеoинфoрмацию в детальнoм прoфессиoнальнoм фoрмате.

Характеристики температуры и влажнoсти вoздуха измеряются на высoте 2 м в тени вдали oт зданий и деревьев.
Скoрoсть ветра измеряется на высoте 10 м (на урoвне рoста челoвека скoрoсть ветра ниже в 1.5-2 раза). Если метеoстанция нахoдится в гoрoде или в лесу, тo скoрoсть ветра занижена на 2-4 м/с пo сравнению с oткрытым местoм. Скoрoсть ветра над акватoриями крупных рек и oзёр, а также на вершинах хoлмoв на 2-5 м/с выше, чем в oбычных услoвиях.
Атмoсфернoе давление в разных тoчках местнoсти мoжет значительнo oтличаться oт давления на метеoстанции, в зависимoсти oт услoвий рельефа (при пoдъёме на 10 м давление пoнижается примернo на 1 мм рт.ст.).